User: anonymous   Login
Location: Unspecified
(0.0000°N, 0.0000°E)
Time: 21:43:33
(UTC+00:00)
Language:

ORS OBJECT Z - Orbit

View from above orbital plane
View from above orbital plane
View from above satellite
View from above satellite

Ground track
Ground track

The orbit data is extracted from the following two-line orbital elements,

1 39403U 13064Z   18048.20864491 +.00007543 +00000-0 +12550-3 0  9993
2 39403 040.5250 354.8058 0005858 265.2590 094.7561 15.52161367236847
Epoch (UTC): 17 February 2018 05:00:26
Eccentricity: 0.0005858
inclination: 40.5250°
perigee height: 406 km
apogee height: 414 km
right ascension of ascending node: 354.8058°
argument of perigee: 265.2590°
revolutions per day: 15.52161367
mean anomaly at epoch: 94.7561°
orbit number at epoch: 23684

The dashed part of the orbit path shows where the satellite is in the earth's shadow,  

DLR